Regional Weather Roundup
Issued by NWS

Home | Current Version | Previous Version | Graphics & Text | Print | Product List | Glossary On
Versions: 1 2 3 4 5 6 7 8 9 10 11 12 13 14 15 16 17 18 19 20 21 22 23 24 25 26 27 28 29 30 31 32 33 34 35 36 37 38 39 40 41 42 43 44 45 46 47 48 49 50
000
ASUS44 KMEG 230310
RWRTN
TENNESSEE HOURLY STATE WEATHER ROUNDUP
NATIONAL WEATHER SERVICE MEMPHIS TN
1000 PM CDT TUE MAY 22 2018

TNZ002-004-019-021-049-052-054-088>092-230400-
WEST TENNESSEE

CITY           SKY/WX    TMP DP  RH WIND       PRES   REMARKS
MEMPHIS INTL   CLOUDY    74  69  85 E5        30.03R
NWS MEMPHIS      N/A     70 N/A N/A MISG        N/A
JACKSON        FAIR      72  72 100 SW5       30.03R
DYERSBURG      FAIR      74  72  93 E3        30.04R
COVINGTON      PTCLDY    75  70  83 CALM      30.03R
BOLIVAR        FOG       70  70 100 CALM      30.03R VSB 1/4
PARIS          CLEAR     70  68  94 CALM      30.04R FOG
HUNTINGDON     MOCLDY    70  68  94 CALM      30.03R
LEXINGTON      FOG       70  70 100 NW3       30.03R VSB 1/2
SELMER         CLEAR     70  70 100 CALM      30.04R
SAVANNAH       CLEAR     72  72 100 SW3       30.04R
$$

TNZ008-025-027-028-033-062-065-066-230400-
NORTH MIDDLE TENNESSEE

CITY           SKY/WX    TMP DP  RH WIND       PRES   REMARKS
NASHVILLE      MOCLDY    69  66  90 CALM      30.05R
DICKSON        CLEAR     66  66 100 CALM      30.05R
PORTLAND         N/A     68  66  94 CALM      30.05R
CLARKSVILLE    FAIR      70  66  87 CALM      30.03R
SMYRNA         FAIR      68  67  96 CALM      30.06R
MURFREESBORO   PTCLDY    72  66  83 CALM      30.04R
COOKEVILLE     CLEAR     68  66  94 CALM      30.06R
LIVINGSTON     CLEAR     66  66 100 CALM      30.07R
GALLATIN       CLEAR     70  68  94 CALM      30.07R
CROSSVILLE     FAIR      66  64  93 CALM      30.11R
$$

TNZ061-075-076-078-094-096-097-230400-
SOUTH MIDDLE TENNESSEE

CITY           SKY/WX    TMP DP  RH WIND       PRES   REMARKS
LEWISBURG      CLEAR     70  68  94 CALM      30.05R
FAYETTEVILLE   CLOUDY    70  70 100 N5        30.06R
TULLAHOMA      PTCLDY    70  68  94 CALM      30.06R
WINCHESTER     MOCLDY    70  66  88 S3        30.06R
MCMINNVILLE    CLEAR     66  66 100 CALM      30.07R
COLUMBIA       CLEAR     70  70 100 CALM      30.04R
SHELBYVILLE    PTCLDY    70  68  94 CALM      30.06R
$$

TNZ017-018-042-046-047-230400-
NORTHEAST TENNESSEE

CITY           SKY/WX    TMP DP  RH WIND       PRES   REMARKS
TRI CITIES     FAIR      66  66 100 N5        30.09R
ELIZABETHTON     N/A     66  64  94 NE3       30.10S
GREENEVILLE    CLOUDY    70  64  83 CALM      30.10R
$$

TNZ012-013-036-069-073-074-230400-
CENTRAL EAST TENNESSEE

CITY           SKY/WX    TMP DP  RH WIND       PRES   REMARKS
KNOXVILLE      MOCLDY    68  67  96 SW3       30.08R
OAK RIDGE      FAIR      72  65  78 CALM      30.09R
DOWNTOWN KNOXV FOG       66  66 100 CALM      30.08R VSB 1/2
GATLINBURG     PTCLDY    68  66  94 CALM      30.08R
MORRISTOWN     CLOUDY    73  70  88 CALM      30.08S
JACKSBORO      MOCLDY    66  66 100 CALM      30.11S
$$

TNZ083-085-099-230400-
SOUTHEAST TENNESSEE

CITY           SKY/WX    TMP DP  RH WIND       PRES   REMARKS
CHATTANOOGA    FAIR      72  64  76 SE5       30.07R
DAYTON         PTCLDY    68  68 100 CALM      30.06R
$$

SKY/WX REPORTED AS FAIR MEANS FEW OR NO CLOUDS BELOW
12 THOUSAND FEET.





USA.gov is the U.S. government's official web portal to all federal, state and local government web resources and services.